Regional Weather Roundup
Issued by NWS Mobile, AL

Home | Current Version | Previous Version | Text Only | Print | Product List | Glossary Off
Versions: 1 2 3 4 5 6 7 8 9 10 11 12 13 14 15 16 17 18 19 20 21 22 23 24 25 26 27 28 29 30 31 32 33 34 35 36 37 38 39 40 41 42 43 44 45 46 47 48 49 50

000
ASUS44 KMOB 020810
RWRMOB
REGIONAL WEATHER ROUNDUP
NATIONAL WEATHER SERVICE MOBILE AL
300 AM CDT SAT AUG 02 2014

NOTE: "FAIR" INDICATES FEW OR NO CLOUDS BELOW 12,000 FEET WITH NO
      SIGNIFICANT WEATHER AND/OR OBSTRUCTIONS TO VISIBILITY.

  * THESE STATIONS ARE PART OF THE UNIVERSITY OF SOUTH ALABAMA
    MESONET AND ARE NOT UNDER NWS OR FAA QUALITY CONTROL.

ALZ061>064-020900-
COASTAL ALABAMA

CITY           SKY/WX    TMP DP  RH WIND       PRES   REMARKS
MOBILE REG APT PTCLDY    72  71  97 CALM      29.99S
BROOKLEY FIELD CLEAR     73  71  93 NW5       29.99S
USA CAMPUS*      N/A     72  70  94 CALM      29.98S
DOG RIVER*       N/A     73  72  94 CALM      29.98F


CITY           SKY/WX    TMP DP  RH WIND       PRES   REMARKS
MOUNT VERNON*    N/A     70  68  94 CALM      29.99S
SARALAND*      NOT AVBL
BAY MINETTE*   NOT AVBL
LOXLEY*          N/A    N/A N/A N/A CALM      29.98F
ROBERTSDALE*     N/A    N/A N/A N/A CALM      29.97F
FAIRHOPE*        N/A     72  72 100 CALM      29.97F
ELBERTA*         N/A     72  59  64 CALM      29.96F
FOLEY*         NOT AVBL
GRAND BAY*       N/A     68  68 100 CALM      29.96S
DAUPHIN ISLND* NOT AVBL
BON SCOUR NWR* NOT AVBL
GULF SHORES    PTCLDY    71  69  96 CALM      29.96F

$$

ALZ051>060-020900-
INTERIOR SOUTHWEST AND SOUTH CENTRAL ALABAMA

CITY           SKY/WX    TMP DP  RH WIND       PRES   REMARKS
GREENVILLE     CLOUDY    74  70  87 CALM      29.99F
EVERGREEN      CLOUDY    75  72  90 CALM      29.99F
CASTLEBERRY*   NOT AVBL
ATMORE*          N/A     73  73 100 CALM      29.99F
DIXIE*         NOT AVBL
ANDALUSIA/OPP  CLOUDY    77  72  84 CALM      29.98F
ANDALUSIA*     NOT AVBL
FLORALA APT    CLOUDY    75  71  87 CALM      29.99F
FLORALA*         N/A     73  70  88 CALM      29.96S

$$

FLZ001>006-020900-
WESTERN FLORIDA PANHANDLE

CITY           SKY/WX    TMP DP  RH WIND       PRES   REMARKS
PENSACOLA      MOCLDY    74  70  87 N3        29.96F
NAS PENSACOLA  PTCLDY    74  72  93 CALM      29.96F
MILTON         MOCLDY    73  69  87 CALM      29.97F
WHTNG S FIELD  MOCLDY    77  71  82 NE3       29.97F


CITY           SKY/WX    TMP DP  RH WIND       PRES   REMARKS
WALNUT HILL*   NOT AVBL
JAY*           NOT AVBL
DUKE FIELD     MOCLDY    73  73  99 N1        29.97S
CRESTVIEW      CLOUDY    73  71  93 CALM      29.98F
VALPARAISO     MOCLDY    75  70  84 N2        29.96F
DESTIN         MOCLDY    79  73  82 NE3       29.96F

$$

MSZ076-079-020900-
INTERIOR SOUTHEAST MISSISSIPPI

CITY           SKY/WX    TMP DP  RH WIND       PRES   REMARKS
LEAKESVILLE*     N/A     72  66  83 CALM        N/A
AGRICOLA*      NOT AVBL

$$

MARINE OBSERVATIONS

STATION/POSITION TIME  TEMP    WIND        PRES    WAVE
                       AIR SEA DIR/SP/G            HT/PER
                 (UTC) (F)     (DEG/KT/KT) (MB)    (FT/S)
PASCAGOULA       0800   75      30/  3/  3 1014.8S
PETIT BOIS ISLND 0800   79      60/  4/  5 1015.2S
GRAND BAY        0700   75      40/  4     1016.0S
KATRINA CUT      0700   79      50/  7     1015.6F
CEDAR POINT      0700   76      20/  4     1014.9F
E DAUPHIN ISLAND 0700   81      50/  5/  6 1015.1F
MIDDLE BAY LIGHT 0700   80      50/  7     1013.9F
USCG MOBILE BAY  0800   76 82  330/  3/  4 1014.0F
STATE DOCKS      0800   78 82              1014.8F
MEAHER PARK      0700   76      20/  2     1014.9F
WEEKS BAY        0700   69                   N/A
FORT MORGAN      0800   79      70/  5/  6 1014.4S
12 S ORANGE BCH  0800   80 83   20/  8/  8 1014.8F   0
PENSACOLA BAY    0800   79 84  360/  2/  3 1014.8F
64 S DAUPHIN ISL 0653   82 84   50/  2/  4 1014.9F
67 S FORT MORGAN 0700   82                 1014.6F

$$

SELECTED LOCATIONS ACROSS THE REGION

CITY           SKY/WX    TMP DP  RH WIND       PRES   REMARKS
NEW ORLEANS    CLOUDY    79  68  69 SE7       29.96S
GULFPORT       CLOUDY    76  69  79 CALM      29.97S
PASCAGOULA AP  PTCLDY    68  67  96 CALM      29.98S
PASCAGOULA*      N/A     70  70 100 CALM      29.97F
HATTIESBURG    CLOUDY    73  71  93 CALM      30.00S
LAUREL         PTCLDY    72  66  83 CALM      30.01S
MERIDIAN       CLOUDY    72  69  90 CALM      30.00S
JACKSON        CLOUDY    72  70  93 E3        30.00F
MONTGOMERY     CLOUDY    75  70  84 E5        30.00F
TROY           CLOUDY    73  70  90 CALM      30.00F
KINSTON*       NOT AVBL
GENEVA*          N/A     72  70  94 CALM      29.99F
ASHFORD*       NOT AVBL
DOTHAN         CLOUDY    73  70  90 NE6       30.02F
PANAMA CITY    PTCLDY    74  70  87 CALM      29.95F

$$




USA.gov is the U.S. government's official web portal to all federal, state and local government web resources and services.